Location: Palomar Mountain Lodge
(33.3110°N, 116.8495°W)
Time: 04:02:23
(UTC-07:00)

Cosmos 2208 Rocket - Pass Details

Date: 12 July 2018
Orbit: 755 x 806 km, 74.0° (Epoch: 24 September)

Event Time Altitude Azimuth Distance (km) Brightness Sun altitude
Rises 21:52:55 0° 345° (NNW) 3,317 8.3 -20.1°
Reaches altitude 10° 21:55:21 10° 348° (NNW) 2,385 7.4 -20.5°
Maximum altitude 22:00:47 71° 72° (ENE) 850 4.1 -21.2°
Enters shadow 22:02:19 47° 140° (SE) 1,058 4.2 -21.5°
